This is the latest recevied weather packets stored in our database for station/object HB9TJM-8. If no packets are shown the sender has not sent any weather packets the latest 10 day(s).
| Time | Temp. | Humidity | Pressure | Rain* | Wind** | Luminosity | Snow |
|---|---|---|---|---|---|---|---|
| 1777796477 | 15° C | 52% | 1017.3 hPa | 0 mm | - | 614 W/m² | - |
| 1777796170 | 15° C | 57% | 1017.1 hPa | 0 mm | - | 596 W/m² | - |
| 1777795863 | 14.44° C | 58% | 1016.9 hPa | 0 mm | - | 561 W/m² | - |
| 1777795556 | 14.44° C | 57% | 1017.1 hPa | 0 mm | - | 308 W/m² | - |
| 1777794941 | 15° C | 55% | 1017 hPa | 0 mm | - | 291 W/m² | - |
| 1777794633 | 13.89° C | 53% | 1017.3 hPa | 0 mm | - | 385 W/m² | - |
| 1777794325 | 13.33° C | 63% | 1016.8 hPa | 0 mm | - | 469 W/m² | - |
| 1777794018 | 12.22° C | 64% | 1017.2 hPa | 0 mm | - | 277 W/m² | - |
| 1777793710 | 12.78° C | 62% | 1017.1 hPa | 0 mm | - | 221 W/m² | - |
| 1777793403 | 12.22° C | 60% | 1017 hPa | 0 mm | - | 194 W/m² | - |
| 1777793096 | 12.22° C | 58% | 1016.8 hPa | 0 mm | - | 179 W/m² | - |
| 1777792788 | 12.22° C | 58% | 1017.1 hPa | 0 mm | - | 159 W/m² | - |
| 1777792480 | 12.78° C | 54% | 1016.8 hPa | 0 mm | - | 141 W/m² | - |
| 1777792173 | 12.78° C | 61% | 1016.6 hPa | 0 mm | - | 114 W/m² | - |
| 1777791865 | 12.78° C | 56% | 1017.1 hPa | 0 mm | - | 74 W/m² | - |
| 1777791558 | 12.78° C | 60% | 1016.8 hPa | 0 mm | - | 119 W/m² | - |
| 1777791251 | 12.22° C | 61% | 1017.2 hPa | 0 mm | - | 117 W/m² | - |
| 1777790943 | 12.22° C | 62% | 1017.4 hPa | 0 mm | - | 120 W/m² | - |
| 1777790635 | 12.78° C | 60% | 1017.6 hPa | 0 mm | - | 133 W/m² | - |
| 1777790328 | 12.78° C | 61% | 1017.7 hPa | 0 mm | - | 124 W/m² | - |
| 1777790020 | 12.78° C | 57% | 1017.4 hPa | 0 mm | - | 84 W/m² | - |
| 1777789713 | 12.78° C | 53% | 1017.6 hPa | 0 mm | - | 64 W/m² | - |
| 1777789406 | 12.78° C | 61% | 1017.7 hPa | 0 mm | - | 78 W/m² | - |
| 1777789098 | 12.78° C | 55% | 1017.4 hPa | 0 mm | - | 117 W/m² | - |
| 1777788790 | 13.33° C | 47% | 1017.8 hPa | 0 mm | - | 122 W/m² | - |
* Rain latest hour (hover to see other rain measurements)
** Current wind speed in m/s (hover to see current wind gust speed)